GW5740 Weather Reports


time (UTC)temp
C
wind
direction
speed
KPH
gust
KPH
rain 1hr
cm
rain 24hr
cm
rain mn
cm
humidity
%
barometer
mb
20260503060308 2 280 0.0 1.6 0.00 0.00 0.00 78 1010.6
20260503054808 2 0 0.0 0.0 0.00 0.00 0.00 77 1010.7
20260503054308 2 14 0.0 3.2 0.00 0.00 0.00 77 1010.7
20260503053809 2 18 3.2 3.2 0.00 0.00 0.00 79 1010.7
20260503053308 2 14 0.0 1.6 0.00 0.00 0.00 78 1010.8
20260503052809 2 0 0.0 0.0 0.00 0.00 0.00 74 1010.8
20260503052309 2 277 0.0 1.6 0.00 0.00 0.00 79 1010.9
20260503051808 2 0 0.0 0.0 0.00 0.00 0.00 79 1010.9
20260503051309 2 0 0.0 0.0 0.00 0.00 0.00 77 1011.0
20260503050809 2 0 0.0 0.0 0.00 0.00 0.00 77 1011.0
20260503050308 2 287 0.0 1.6 0.00 0.00 0.00 78 1011.1
20260503045808 2 282 0.0 0.0 0.00 0.00 0.00 77 1011.0
20260503045308 3 0 0.0 0.0 0.00 0.00 0.00 77 1011.1
20260503044809 3 35 0.0 1.6 0.00 0.00 0.00 73 1011.1
20260503044308 2 0 0.0 0.0 0.00 0.00 0.00 74 1011.1
20260503043809 2 333 0.0 0.0 0.00 0.00 0.00 74 1011.1
20260503043309 2 0 0.0 0.0 0.00 0.00 0.00 71 1011.2
20260503042808 2 0 0.0 0.0 0.00 0.00 0.00 76 1011.3
20260503042308 3 110 0.0 0.0 0.00 0.00 0.00 75 1011.3
20260503041808 2 7 1.6 3.2 0.00 0.00 0.00 72 1011.3
20260503041308 2 0 0.0 0.0 0.00 0.00 0.00 71 1011.3
20260503040808 2 0 0.0 0.0 0.00 0.00 0.00 71 1011.3
20260503040308 2 0 0.0 0.0 0.00 0.00 0.00 69 1011.4
20260503035808 2 0 0.0 0.0 0.00 0.00 0.41 70 1011.4
20260503035308 2 2 1.6 3.2 0.00 0.00 0.41 72 1011.4
20260503034808 2 28 3.2 3.2 0.00 0.00 0.41 73 1011.5
20260503034308 2 29 3.2 3.2 0.00 0.00 0.41 68 1011.5
20260503033809 2 32 3.2 3.2 0.00 0.00 0.41 70 1011.5
20260503033308 2 29 1.6 3.2 0.00 0.00 0.41 72 1011.6
20260503032808 2 116 0.0 1.6 0.00 0.00 0.41 71 1011.5
20260503032308 2 31 1.6 3.2 0.00 0.00 0.41 71 1011.6
20260503031808 1 38 0.0 1.6 0.00 0.00 0.41 71 1011.6
20260503031308 1 34 3.2 3.2 0.00 0.00 0.41 73 1011.6
20260503030808 1 27 1.6 3.2 0.00 0.00 0.41 75 1011.6
20260503030308 1 17 3.2 3.2 0.00 0.00 0.41 74 1011.7
20260503025808 1 21 0.0 3.2 0.00 0.00 0.41 74 1011.6
20260503025308 1 0 0.0 0.0 0.00 0.00 0.41 73 1011.7
20260503024808 1 0 0.0 0.0 0.00 0.00 0.41 69 1011.6
20260503024308 1 0 0.0 0.0 0.00 0.00 0.41 67 1011.6
20260503023809 1 0 0.0 0.0 0.00 0.00 0.41 70 1011.6
20260503023308 1 23 0.0 1.6 0.00 0.00 0.41 72 1011.6
20260503022808 2 0 0.0 0.0 0.00 0.00 0.41 70 1011.6
20260503022308 2 350 0.0 1.6 0.00 0.00 0.41 69 1011.7
20260503021809 2 0 0.0 0.0 0.00 0.00 0.41 65 1011.8
20260503021308 2 13 3.2 3.2 0.00 0.00 0.41 62 1011.8
20260503020808 2 20 4.8 4.8 0.00 0.00 0.41 64 1011.8
20260503020308 2 35 3.2 4.8 0.00 0.00 0.41 64 1011.8
20260503015809 3 28 3.2 3.2 0.00 0.00 0.41 64 1011.9
20260503015309 3 17 3.2 3.2 0.00 0.00 0.41 63 1011.9
20260503014810 3 23 1.6 3.2 0.00 0.00 0.41 64 1011.9
20260503014308 3 39 1.6 3.2 0.00 0.00 0.41 66 1011.9
20260503013816 3 56 0.0 1.6 0.00 0.00 0.41 65 1011.9
20260503013308 3 14 1.6 3.2 0.00 0.00 0.41 62 1011.9
20260503012809 3 18 3.2 3.2 0.00 0.00 0.41 64 1011.9
20260503012308 3 17 0.0 1.6 0.00 0.00 0.41 63 1011.9
20260503011808 4 0 0.0 0.0 0.00 0.00 0.41 59 1011.9
20260503011309 4 352 0.0 1.6 0.00 0.00 0.41 58 1011.9
20260503010808 4 0 0.0 0.0 0.00 0.00 0.41 54 1011.8
20260503010308 5 24 3.2 3.2 0.00 0.00 0.41 56 1011.8
20260503005809 5 15 0.0 1.6 0.00 0.00 0.41 55 1011.8
20260503005308 5 68 0.0 0.0 0.00 0.00 0.41 59 1011.7
20260503004808 5 0 0.0 0.0 0.00 0.00 0.41 51 1011.7
20260503004308 5 20 0.0 1.6 0.00 0.00 0.41 49 1011.6
20260503003808 5 331 0.0 3.2 0.00 0.00 0.41 50 1011.6
20260503003308 6 319 1.6 3.2 0.00 0.00 0.41 49 1011.6
20260503002808 6 9 0.0 0.0 0.00 0.00 0.41 49 1011.5
20260503002308 6 0 0.0 0.0 0.00 0.00 0.41 48 1011.5
20260503001808 6 351 0.0 1.6 0.00 0.00 0.41 47 1011.5
20260503001309 6 0 0.0 0.0 0.00 0.00 0.41 48 1011.5
20260503000808 7 0 0.0 0.0 0.00 0.00 0.41 47 1011.4
20260503000308 7 308 0.0 1.6 0.00 0.00 0.41 46 1011.4
20260502235808 7 153 1.6 3.2 0.00 0.00 0.41 43 1011.3
20260502235308 7 156 1.6 3.2 0.00 0.00 0.41 45 1011.3
20260502234808 7 161 3.2 3.2 0.00 0.00 0.41 43 1011.3
20260502234308 7 186 4.8 6.4 0.00 0.00 0.41 43 1011.3
20260502233810 8 146 3.2 4.8 0.00 0.00 0.41 43 1011.3
20260502233308 8 166 1.6 3.2 0.00 0.00 0.41 44 1011.2
20260502232808 8 258 0.0 1.6 0.00 0.00 0.41 42 1011.1
20260502232308 8 157 3.2 4.8 0.00 0.00 0.41 44 1011.1
20260502231808 8 122 1.6 3.2 0.00 0.00 0.41 43 1011.0
20260502231309 8 48 0.0 3.2 0.00 0.00 0.41 43 1011.0
20260502230810 8 187 4.8 9.7 0.00 0.00 0.41 42 1011.0
20260502230308 9 168 3.2 3.2 0.00 0.00 0.41 43 1010.9
20260502225809 9 224 3.2 6.4 0.00 0.00 0.41 43 1010.8
20260502225308 9 167 3.2 6.4 0.00 0.00 0.41 42 1010.8
20260502224808 9 209 4.8 9.7 0.00 0.00 0.41 43 1010.7
20260502224309 10 167 4.8 8.0 0.00 0.00 0.41 42 1010.7
20260502223809 10 190 3.2 8.0 0.00 0.00 0.41 41 1010.6
20260502223308 10 152 4.8 9.7 0.00 0.00 0.41 42 1010.6
20260502222810 10 172 4.8 6.4 0.00 0.00 0.41 41 1010.5
20260502222308 10 189 4.8 8.0 0.00 0.00 0.41 42 1010.5
20260502221809 10 188 4.8 9.7 0.00 0.00 0.41 41 1010.5
20260502221309 10 149 3.2 11.3 0.00 0.00 0.41 42 1010.5
20260502220809 10 216 1.6 4.8 0.00 0.00 0.41 41 1010.4
20260502220308 10 217 8.0 11.3 0.00 0.00 0.41 41 1010.3
20260502215808 10 216 6.4 11.3 0.00 0.00 0.41 41 1010.3
20260502215308 11 185 8.0 16.1 0.00 0.00 0.41 42 1010.3
20260502214809 11 179 6.4 8.0 0.00 0.00 0.41 41 1010.2
20260502214309 11 181 8.0 11.3 0.00 0.00 0.41 41 1010.0
20260502213809 11 193 8.0 16.1 0.00 0.00 0.41 40 1010.1
20260502213308 11 219 6.4 11.3 0.00 0.00 0.41 42 1010.1
20260502212808 11 191 6.4 11.3 0.00 0.00 0.41 40 1010.0
20260502212309 11 190 6.4 8.0 0.00 0.00 0.41 42 1010.0
20260502211808 11 208 6.4 11.3 0.00 0.00 0.41 41 1010.0
20260502211309 11 182 6.4 12.9 0.00 0.00 0.41 41 1009.9
20260502210808 11 178 8.0 12.9 0.00 0.00 0.41 41 1009.9
20260502210308 11 195 6.4 8.0 0.00 0.00 0.41 42 1010.0
20260502205809 10 173 8.0 11.3 0.00 0.00 0.41 42 1010.0
20260502205309 10 179 9.7 14.5 0.00 0.00 0.41 43 1010.0
20260502204809 10 187 8.0 11.3 0.00 0.00 0.41 44 1010.0
20260502204308 11 178 6.4 11.3 0.00 0.00 0.41 44 1010.0
20260502203809 11 178 4.8 11.3 0.00 0.00 0.41 42 1010.0
20260502203308 11 177 6.4 9.7 0.00 0.00 0.41 40 1010.0
20260502202809 12 201 4.8 9.7 0.00 0.00 0.41 42 1010.0
20260502202308 11 167 8.0 11.3 0.00 0.00 0.41 41 1010.0
20260502201809 11 192 6.4 8.0 0.00 0.00 0.41 40 1010.0
20260502201308 12 192 9.7 12.9 0.00 0.00 0.41 39 1010.0
20260502200808 11 258 6.4 9.7 0.00 0.00 0.41 40 1010.1
20260502200309 12 185 9.7 12.9 0.00 0.00 0.41 41 1010.1
20260502195810 12 176 4.8 8.0 0.00 0.00 0.41 41 1010.1
20260502195308 12 217 9.7 16.1 0.00 0.00 0.41 42 1010.1
20260502194808 11 186 6.4 9.7 0.00 0.00 0.41 42 1010.1
20260502194308 11 178 4.8 8.0 0.00 0.00 0.41 46 1010.1
20260502193808 10 191 6.4 12.9 0.00 0.00 0.41 48 1010.2
20260502193309 11 180 6.4 11.3 0.00 0.00 0.41 48 1010.3
20260502192808 11 185 6.4 11.3 0.00 0.00 0.41 49 1010.3
20260502192308 10 196 4.8 8.0 0.00 0.00 0.41 50 1010.3
20260502191809 10 189 8.0 9.7 0.00 0.00 0.41 50 1010.3
20260502191309 10 194 6.4 8.0 0.00 0.00 0.41 51 1010.4
20260502190809 10 170 6.4 8.0 0.00 0.00 0.41 51 1010.4
20260502190308 10 175 9.7 12.9 0.00 0.00 0.41 50 1010.4
20260502185808 10 211 3.2 8.0 0.00 0.00 0.41 54 1010.4
20260502185308 10 148 1.6 6.4 0.00 0.00 0.41 52 1010.4
20260502184810 10 179 4.8 6.4 0.00 0.00 0.41 55 1010.5
20260502184308 11 7 3.2 6.4 0.00 0.00 0.41 55 1010.6
20260502183808 10 254 6.4 8.0 0.00 0.00 0.41 56 1010.6
20260502183309 10 168 3.2 6.4 0.00 0.00 0.41 62 1010.6
20260502182808 10 196 3.2 4.8 0.00 0.00 0.41 61 1010.7
20260502182310 10 209 1.6 3.2 0.00 0.00 0.41 61 1010.7
20260502181808 10 232 3.2 3.2 0.00 0.00 0.41 65 1010.8
20260502181308 10 220 0.0 3.2 0.00 0.00 0.41 63 1010.9
20260502180809 10 27 0.0 3.2 0.00 0.00 0.41 70 1011.0
20260502180308 9 113 1.6 3.2 0.00 0.00 0.41 73 1011.0
20260502170308 8 149 0.0 1.6 0.00 0.00 0.41 80 1011.3
20260502164308 7 22 1.6 1.6 0.00 0.00 0.38 85 1011.4
20260502163808 6 0 0.0 0.0 0.00 0.00 0.38 84 1011.4
20260502163309 6 128 0.0 0.0 0.00 0.00 0.38 86 1011.5
20260502162810 6 144 1.6 1.6 0.00 0.00 0.38 88 1011.5
20260502162308 6 2 0.0 0.0 0.03 0.00 0.38 88 1011.5
20260502161809 6 0 0.0 0.0 0.03 0.00 0.38 88 1011.5
20260502161308 6 39 0.0 1.6 0.03 0.00 0.38 88 1011.6
20260502160808 6 18 3.2 3.2 0.03 0.00 0.38 89 1011.5
20260502160308 6 0 0.0 0.0 0.03 0.00 0.38 89 1011.5
20260502152309 6 123 0.0 0.0 0.03 0.00 0.36 88 1011.7
20260502151808 6 325 3.2 4.8 0.03 0.00 0.36 88 1011.7
20260502151309 6 153 0.0 0.0 0.03 0.00 0.36 89 1011.6
20260502150808 6 196 1.6 3.2 0.00 0.00 0.36 88 1011.6
20260502150309 6 224 3.2 4.8 0.00 0.00 0.36 89 1011.6
20260502130308 6 185 3.2 4.8 0.00 0.00 0.33 89 1011.5
20260502123809 6 164 3.2 3.2 0.00 0.00 0.33 89 1011.6
20260502123308 6 277 0.0 0.0 0.00 0.00 0.33 89 1011.5
20260502122808 6 195 3.2 4.8 0.00 0.00 0.33 89 1011.4
20260502122308 6 166 3.2 3.2 0.00 0.00 0.33 89 1011.4
20260502121809 6 199 4.8 6.4 0.00 0.00 0.33 89 1011.4
20260502121308 6 181 4.8 4.8 0.00 0.00 0.33 90 1011.4
20260502120808 6 180 3.2 3.2 0.00 0.00 0.33 90 1011.4
20260502120308 6 179 4.8 4.8 0.00 0.00 0.33 89 1011.3
20260502115808 6 220 1.6 3.2 0.00 0.00 0.33 90 1011.3
20260502115308 6 189 3.2 3.2 0.00 0.00 0.33 90 1011.3
20260502114808 6 177 3.2 3.2 0.00 0.00 0.33 90 1011.3
20260502114308 6 195 3.2 3.2 0.00 0.00 0.33 90 1011.2
20260502113808 6 197 3.2 3.2 0.00 0.00 0.33 90 1011.2
20260502113308 6 182 1.6 3.2 0.00 0.00 0.33 91 1011.1
20260502112808 6 183 0.0 1.6 0.00 0.00 0.33 91 1011.1
20260502112309 6 179 0.0 0.0 0.00 0.00 0.33 91 1011.2
20260502111808 6 0 0.0 0.0 0.00 0.00 0.33 92 1011.0
20260502111309 6 0 0.0 0.0 0.00 0.00 0.33 92 1011.0
20260502110808 6 0 0.0 0.0 0.00 0.00 0.33 92 1010.9
20260502110309 6 234 0.0 1.6 0.00 0.00 0.33 92 1011.0
20260502105808 6 0 0.0 0.0 0.00 0.00 0.33 92 1010.9
20260502105308 6 0 0.0 0.0 0.00 0.00 0.33 92 1010.9
20260502104808 6 0 0.0 0.0 0.00 0.00 0.33 91 1010.9
20260502104308 6 22 0.0 1.6 0.00 0.00 0.33 91 1010.8
20260502103808 6 0 0.0 0.0 0.00 0.00 0.33 91 1010.8
20260502103309 6 350 0.0 1.6 0.00 0.00 0.33 91 1010.9
20260502102808 6 0 0.0 0.0 0.00 0.00 0.33 91 1010.9
20260502102308 6 272 0.0 0.0 0.00 0.00 0.30 91 1010.8
20260502101809 6 219 0.0 1.6 0.00 0.00 0.30 91 1010.9
20260502101308 6 0 0.0 0.0 0.00 0.00 0.30 91 1010.9
20260502100808 6 0 0.0 0.0 0.00 0.00 0.30 91 1010.8
20260502100308 6 0 0.0 0.0 0.00 0.00 0.30 91 1010.7
20260502091309 6 217 1.6 3.2 0.00 0.00 0.30 87 1010.6
20260502090808 6 0 0.0 0.0 0.00 0.00 0.30 87 1010.6
20260502090308 6 0 0.0 0.0 0.00 0.00 0.30 87 1010.6
20260502071308 6 293 0.0 1.6 0.03 0.00 0.30 86 1010.8
20260502070809 6 163 1.6 3.2 0.03 0.00 0.30 86 1010.9
20260502070308 6 212 3.2 4.8 0.05 0.00 0.30 86 1010.9
20260502065808 6 157 1.6 3.2 0.05 0.00 0.28 86 1010.9
20260502065308 6 214 3.2 4.8 0.05 0.00 0.28 86 1010.9
20260502064808 6 174 3.2 4.8 0.05 0.00 0.28 86 1010.8
20260502064308 6 229 3.2 4.8 0.05 0.00 0.28 86 1010.8
20260502063808 6 112 0.0 1.6 0.05 0.00 0.28 86 1011.0